contact:dominique.lefevre@mio.osupytheas.fr, maurice.libes@osupytheas.fr
Project:EMSO Ligure-ouest http://www.emso-fr.org/EMSO-France
Sensor Aquadopp, line 13 Serial AQD14315 
DOI : "https://doi.org/10.17882/74513; https://doi.org/10.17882/83244" 
Title:EMSO Ligure Ouest : Data ligne ALBATROSS capteur AQUADOPP - deploiement 2021
Id,Date,Profondeur,Latitude,Longitude,X_East,Y_North,Z_Up,Amplitude_X,Amplitude_Y,Amplitude_Z,Batterie,SoundSpeed,Heading,Pitch,Roll,Pressure,Temperature,Speed,Direction
, , m, degrees North, degrees East, m.s-1, m.s-1,m.s-1, 1, 1, 1, Volt, m.s-1, degree, degree, degree, dbar, degree_C, m.s-1, degree
13,2021-12-02T22:00:00,2400.0,42.79,6.0312,-0.09,-0.013,-0.026,61.0,56.0,57.0,12.5,1504.8,265.9,-1.8,-0.9,2394.707,13.33,0.09,261.8
13,2021-12-02T22:30:00,2400.0,42.79,6.0312,-0.081,0.005,0.01,62.0,55.0,58.0,12.6,1504.8,264.3,-2.0,-0.9,2394.719,13.33,0.081,273.5
13,2021-12-02T23:00:00,2400.0,42.79,6.0312,-0.08,0.004,-0.015,64.0,57.0,58.0,12.6,1504.8,268.1,-1.8,-0.8,2394.704,13.33,0.08,272.9
13,2021-12-02T23:30:00,2400.0,42.79,6.0312,-0.087,-0.01,-0.005,61.0,55.0,59.0,12.6,1504.8,264.2,-2.1,-0.7,2394.685,13.33,0.087,263.4
13,2021-12-03T00:00:00,2400.0,42.79,6.0312,-0.068,-0.023,0.006,62.0,55.0,58.0,12.6,1504.8,262.6,-2.2,-0.9,2394.733,13.33,0.071,251.3
13,2021-12-03T00:30:00,2400.0,42.79,6.0312,-0.074,-0.03,-0.019,60.0,55.0,57.0,12.6,1504.8,266.5,-1.9,-0.8,2394.659,13.33,0.079,247.9
13,2021-12-03T01:00:00,2400.0,42.79,6.0312,-0.079,-0.023,-0.015,62.0,57.0,57.0,12.6,1504.8,267.2,-2.5,-1.0,2394.659,13.33,0.082,253.8
13,2021-12-03T01:30:00,2400.0,42.79,6.0312,-0.077,-0.002,-0.012,63.0,57.0,58.0,12.6,1504.8,267.1,-2.0,-0.8,2394.686,13.33,0.077,268.5
13,2021-12-03T02:00:00,2400.0,42.79,6.0312,-0.102,-0.014,0.0,63.0,54.0,59.0,12.6,1504.8,272.6,-2.1,-0.7,2394.712,13.33,0.102,262.2
13,2021-12-03T02:30:00,2400.0,42.79,6.0312,-0.093,-0.013,-0.001,61.0,55.0,56.0,12.5,1504.8,265.9,-2.0,-0.6,2394.702,13.33,0.093,262.0
13,2021-12-03T03:00:00,2400.0,42.79,6.0312,-0.107,-0.008,-0.007,62.0,58.0,58.0,12.6,1504.8,267.9,-2.3,-1.1,2394.746,13.33,0.107,265.7
13,2021-12-03T03:30:00,2400.0,42.79,6.0312,-0.075,-0.004,-0.05,62.0,57.0,58.0,12.6,1504.8,273.2,-2.1,-1.2,2394.776,13.33,0.075,267.0
13,2021-12-03T04:00:00,2400.0,42.79,6.0312,-0.076,-0.008,0.004,64.0,54.0,57.0,12.6,1504.8,271.9,-2.1,-0.9,2394.843,13.33,0.076,264.0
13,2021-12-03T04:30:00,2400.0,42.79,6.0312,-0.077,-0.018,0.002,63.0,58.0,59.0,12.6,1504.8,270.5,-2.2,-0.8,2394.802,13.33,0.079,256.8
13,2021-12-03T05:00:00,2400.0,42.79,6.0312,-0.08,-0.004,-0.031,61.0,55.0,57.0,12.5,1504.8,269.7,-2.3,-0.5,2394.872,13.33,0.08,267.1
13,2021-12-03T05:30:00,2400.0,42.79,6.0312,-0.096,-0.018,-0.007,61.0,55.0,58.0,12.5,1504.8,269.4,-2.3,-1.1,2394.885,13.33,0.097,259.4
13,2021-12-03T06:00:00,2400.0,42.79,6.0312,-0.075,-0.016,-0.024,60.0,54.0,56.0,12.6,1504.8,272.9,-2.4,-1.2,2394.921,13.33,0.076,258.0
13,2021-12-03T06:30:00,2400.0,42.79,6.0312,-0.088,-0.028,0.011,63.0,57.0,58.0,12.5,1504.8,261.4,-2.5,-0.4,2394.943,13.33,0.092,252.4
13,2021-12-03T07:00:00,2400.0,42.79,6.0312,-0.088,-0.003,0.042,60.0,56.0,56.0,12.5,1504.8,274.5,-2.1,-1.2,2394.953,13.33,0.088,268.0
13,2021-12-03T07:30:00,2400.0,42.79,6.0312,-0.072,-0.01,-0.004,61.0,56.0,55.0,12.5,1504.8,268.6,-2.4,-1.1,2394.915,13.33,0.072,262.1
13,2021-12-03T08:00:00,2400.0,42.79,6.0312,-0.097,-0.004,-0.012,62.0,53.0,56.0,12.5,1504.8,269.7,-2.3,-1.0,2394.916,13.33,0.097,267.6
13,2021-12-03T08:30:00,2400.0,42.79,6.0312,-0.086,0.004,-0.016,61.0,54.0,56.0,12.6,1504.8,269.8,-2.8,-1.2,2394.923,13.33,0.086,272.7
13,2021-12-03T09:00:00,2400.0,42.79,6.0312,-0.103,-0.007,-0.028,63.0,53.0,57.0,12.5,1504.8,267.8,-2.4,-1.0,2394.899,13.33,0.103,266.1
13,2021-12-03T09:30:00,2400.0,42.79,6.0312,-0.081,-0.001,-0.023,60.0,56.0,59.0,12.5,1504.8,268.5,-2.7,-1.3,2394.835,13.33,0.081,269.3
13,2021-12-03T10:00:00,2400.0,42.79,6.0312,-0.105,-0.008,-0.008,62.0,55.0,58.0,12.5,1504.8,267.0,-2.5,-0.7,2394.858,13.33,0.105,265.6
13,2021-12-03T10:30:00,2400.0,42.79,6.0312,-0.111,-0.008,-0.024,60.0,55.0,57.0,12.6,1504.8,266.6,-2.3,-1.4,2394.809,13.33,0.111,265.9
13,2021-12-03T11:00:00,2400.0,42.79,6.0312,-0.091,-0.033,-0.023,64.0,58.0,59.0,12.5,1504.8,268.1,-2.7,-0.9,2394.819,13.33,0.096,250.1
13,2021-12-03T11:30:00,2400.0,42.79,6.0312,-0.069,0.0,-0.024,64.0,57.0,60.0,12.5,1504.8,267.7,-2.8,-1.0,2394.769,13.33,0.068,270.0
13,2021-12-03T12:00:00,2400.0,42.79,6.0312,-0.085,0.005,-0.008,63.0,56.0,59.0,12.6,1504.8,267.3,-3.1,-1.2,2394.777,13.33,0.085,273.4
13,2021-12-03T12:30:00,2400.0,42.79,6.0312,-0.089,0.001,0.004,65.0,58.0,57.0,12.6,1504.8,267.3,-2.7,-1.2,2394.815,13.33,0.088,270.6
13,2021-12-03T13:00:00,2400.0,42.79,6.0312,-0.106,-0.001,-0.004,64.0,59.0,62.0,12.6,1504.8,268.1,-2.9,-0.7,2394.778,13.33,0.106,269.5
13,2021-12-03T13:30:00,2400.0,42.79,6.0312,-0.097,0.005,-0.019,62.0,57.0,61.0,12.6,1504.8,270.5,-2.9,-0.9,2394.781,13.33,0.097,272.9
13,2021-12-03T14:00:00,2400.0,42.79,6.0312,-0.095,0.008,-0.023,65.0,56.0,58.0,12.6,1504.8,275.0,-2.8,-1.2,2394.783,13.33,0.095,274.8
13,2021-12-03T14:30:00,2400.0,42.79,6.0312,-0.099,-0.001,0.015,62.0,54.0,58.0,12.6,1504.8,266.3,-3.3,-0.7,2394.788,13.33,0.099,269.4
13,2021-12-03T15:00:00,2400.0,42.79,6.0312,-0.082,-0.01,0.004,61.0,55.0,57.0,12.6,1504.8,269.8,-3.1,-0.8,2394.857,13.33,0.082,263.0
13,2021-12-03T15:30:00,2400.0,42.79,6.0312,-0.093,0.01,-0.019,58.0,54.0,56.0,12.5,1504.8,273.0,-2.8,-0.9,2394.843,13.33,0.093,276.1
13,2021-12-03T16:00:00,2400.0,42.79,6.0312,-0.086,0.011,-0.014,59.0,53.0,54.0,12.6,1504.8,269.4,-2.7,-0.8,2394.88,13.33,0.086,277.3
13,2021-12-03T16:30:00,2400.0,42.79,6.0312,-0.086,-0.001,0.015,55.0,50.0,51.0,12.6,1504.8,277.7,-2.7,-1.0,2394.897,13.33,0.086,269.3
13,2021-12-03T17:00:00,2400.0,42.79,6.0312,-0.087,0.002,-0.009,59.0,54.0,53.0,12.5,1504.8,268.2,-2.8,-0.6,2394.947,13.33,0.087,271.3
13,2021-12-03T17:30:00,2400.0,42.79,6.0312,-0.09,-0.011,-0.016,58.0,51.0,54.0,12.6,1504.8,272.5,-3.0,-1.2,2394.917,13.33,0.09,263.0
13,2021-12-03T18:00:00,2400.0,42.79,6.0312,-0.099,0.0,0.028,58.0,53.0,55.0,12.6,1504.8,274.8,-2.5,-0.8,2394.928,13.33,0.099,270.0
13,2021-12-03T18:30:00,2400.0,42.79,6.0312,-0.106,-0.005,0.003,61.0,55.0,57.0,12.6,1504.8,275.1,-2.5,-1.0,2394.93,13.33,0.106,267.3
13,2021-12-03T19:00:00,2400.0,42.79,6.0312,-0.065,0.008,-0.015,59.0,53.0,56.0,12.5,1504.8,271.6,-2.7,-1.1,2394.961,13.33,0.065,277.0
13,2021-12-03T19:30:00,2400.0,42.79,6.0312,-0.092,0.022,0.007,59.0,52.0,55.0,12.6,1504.8,276.1,-2.5,-1.0,2394.887,13.33,0.094,283.4
13,2021-12-03T20:00:00,2400.0,42.79,6.0312,-0.082,-0.019,-0.012,58.0,54.0,55.0,12.5,1504.8,268.6,-2.6,-0.6,2394.882,13.33,0.084,257.0
13,2021-12-03T20:30:00,2400.0,42.79,6.0312,-0.094,0.0,-0.031,57.0,52.0,54.0,12.5,1504.8,272.0,-2.4,-0.6,2394.869,13.33,0.094,270.0
13,2021-12-03T21:00:00,2400.0,42.79,6.0312,-0.108,-0.031,0.011,58.0,52.0,53.0,12.5,1504.8,272.1,-2.6,-1.1,2394.855,13.33,0.112,254.0
13,2021-12-03T21:30:00,2400.0,42.79,6.0312,-0.119,-0.009,0.011,61.0,55.0,56.0,12.5,1504.8,270.0,-2.3,-1.2,2394.803,13.33,0.119,265.7
